This is the latest recevied weather packets stored in our database for station/object KO4ZGL-13. If no packets are shown the sender has not sent any weather packets the latest 10 day(s).
| Time | Temp. | Humidity | Pressure | Rain* | Wind** | Luminosity | Snow |
|---|---|---|---|---|---|---|---|
| 1788473446 | 32.22° C | 75% | 1016.2 hPa | 0 mm | - | 33 W/m² | - |
| 1788473140 | 32.22° C | 75% | 1016.2 hPa | 0 mm | - | 184 W/m² | - |
| 1788472840 | 31.67° C | 75% | 1016.3 hPa | 0 mm | - | 95 W/m² | - |
| 1788472539 | 32.22° C | 74% | 1016.1 hPa | 0 mm | - | 43 W/m² | - |
| 1788472239 | 32.78° C | 73% | 1016.2 hPa | 0 mm | - | 74 W/m² | - |
| 1788471938 | 32.78° C | 72% | 1016.4 hPa | 0 mm | - | 245 W/m² | - |
| 1788471634 | 33.33° C | 71% | 1016.1 hPa | 0 mm | - | 253 W/m² | - |
| 1788471329 | 33.33° C | 70% | 1016.5 hPa | 0 mm | - | 268 W/m² | - |
| 1788471024 | 33.89° C | 69% | 1016.3 hPa | 0 mm | - | 306 W/m² | - |
| 1788470720 | 34.44° C | 67% | 1016.4 hPa | 0 mm | - | 322 W/m² | - |
| 1788470415 | 33.89° C | 67% | 1016.4 hPa | 0 mm | - | 331 W/m² | - |
| 1788470110 | 33.89° C | 66% | 1016.4 hPa | 0 mm | - | 324 W/m² | - |
| 1788469807 | 33.89° C | 68% | 1016.4 hPa | 0 mm | - | 361 W/m² | - |
| 1788469507 | 33.89° C | 67% | 1016.4 hPa | 0 mm | - | 363 W/m² | - |
| 1788469203 | 33.89° C | 68% | 1016.4 hPa | 0 mm | - | 363 W/m² | - |
| 1788468896 | 34.44° C | 66% | 1016.5 hPa | 0 mm | - | 375 W/m² | - |
| 1788468591 | 34.44° C | 66% | 1016.3 hPa | 0 mm | - | 332 W/m² | - |
| 1788468287 | 33.89° C | 66% | 1016.5 hPa | 0 mm | - | 416 W/m² | - |
| 1788467982 | 33.89° C | 66% | 1016.3 hPa | 0 mm | - | 437 W/m² | - |
| 1788467678 | 33.89° C | 66% | 1016.6 hPa | 0 mm | - | 440 W/m² | - |
| 1788467377 | 33.89° C | 68% | 1016.7 hPa | 0 mm | - | 429 W/m² | - |
| 1788467074 | 34.44° C | 65% | 1016.7 hPa | 0 mm | - | 447 W/m² | - |
| 1788466772 | 35° C | 65% | 1016.7 hPa | 0 mm | - | 460 W/m² | - |
| 1788466463 | 34.44° C | 65% | 1016.7 hPa | 0 mm | - | 448 W/m² | - |
| 1788466161 | 35° C | 67% | 1016.7 hPa | 0 mm | - | 442 W/m² | - |
* Rain latest hour (hover to see other rain measurements)
** Current wind speed in m/s (hover to see current wind gust speed)